When you browse on this site, cookies collect data to enhance your experience and personalize the content and advertising you see.
Visit our Privacy Policy to learn more. By continuing to use the site, you agree to this use of cookies and data.
  • en Suisse
  • Liste des pays
  • À 7 jours
  • Température de l'eau
  • Carte satellitaire
  • Carte météo
  • Widgets météo
  • user-avatar
    Se connecter

    Météo par heure à Algérie

    Ce jour, 16 Juin, Dimanche

    Heure Température Précipitation Vent Pression Humidité
    00:00 +20°C° 0 mm 0 m/s 750 mmHg 75%
    01:00 +22°C° 0 mm 1 m/s 750 mmHg 74%
    02:00 +21°C° 0 mm 1 m/s 749 mmHg 74%
    03:00 +20°C° 0 mm 2 m/s 749 mmHg 73%
    04:00 +20°C° 0 mm 2 m/s 749 mmHg 73%
    05:00 +21°C° 0 mm 2 m/s 749 mmHg 73%
    06:00 +21°C° 0 mm 3 m/s 749 mmHg 74%
    07:00 +22°C° 0 mm 3 m/s 749 mmHg 71%
    08:00 +23°C° 0 mm 4 m/s 749 mmHg 69%
    09:00 +25°C° 0 mm 5 m/s 750 mmHg 66%
    10:00 +25°C° 0 mm 5 m/s 749 mmHg 65%
    11:00 +26°C° 0 mm 5 m/s 749 mmHg 64%
    12:00 +26°C° 0 mm 6 m/s 749 mmHg 62%
    13:00 +26°C° 0 mm 6 m/s 748 mmHg 63%
    14:00 +26°C° 0 mm 6 m/s 748 mmHg 64%
    15:00 +26°C° 0 mm 6 m/s 748 mmHg 65%
    16:00 +24°C° 0 mm 6 m/s 747 mmHg 68%
    17:00 +23°C° 0 mm 6 m/s 747 mmHg 71%
    18:00 +22°C° 0 mm 6 m/s 747 mmHg 75%
    19:00 +22°C° 0.4 mm 6 m/s 747 mmHg 78%
    20:00 +21°C° 0.4 mm 6 m/s 748 mmHg 82%
    21:00 +21°C° 0.4 mm 6 m/s 748 mmHg 85%
    22:00 +21°C° 0.7 mm 5 m/s 748 mmHg 86%
    23:00 +21°C° 0.7 mm 4 m/s 748 mmHg 86%

    Demain, 17 Juin, Lundi

    Heure Température Précipitation Vent Pression Humidité
    00:00 +20°C° 0.7 mm 3 m/s 748 mmHg 87%
    01:00 +20°C° 0.6 mm 2 m/s 748 mmHg 86%
    02:00 +20°C° 0.6 mm 2 m/s 748 mmHg 86%
    03:00 +20°C° 0.6 mm 2 m/s 748 mmHg 86%
    04:00 +20°C° 0.6 mm 2 m/s 748 mmHg 86%
    05:00 +20°C° 0.6 mm 2 m/s 748 mmHg 86%
    06:00 +20°C° 0.6 mm 2 m/s 749 mmHg 86%
    07:00 +21°C° 0.2 mm 2 m/s 749 mmHg 83%
    08:00 +22°C° 0.2 mm 3 m/s 749 mmHg 80%
    09:00 +22°C° 0.2 mm 3 m/s 749 mmHg 76%
    10:00 +24°C° 0 mm 3 m/s 749 mmHg 73%
    11:00 +25°C° 0 mm 4 m/s 749 mmHg 69%
    12:00 +25°C° 0 mm 4 m/s 749 mmHg 66%
    13:00 +25°C° 0 mm 4 m/s 748 mmHg 62%
    14:00 +25°C° 0 mm 4 m/s 748 mmHg 58%
    15:00 +26°C° 0 mm 5 m/s 748 mmHg 54%
    16:00 +25°C° 0 mm 4 m/s 748 mmHg 56%
    17:00 +23°C° 0 mm 4 m/s 748 mmHg 58%
    18:00 +24°C° 0 mm 3 m/s 748 mmHg 60%
    19:00 +22°C° 0 mm 3 m/s 748 mmHg 63%
    20:00 +22°C° 0 mm 3 m/s 749 mmHg 67%
    21:00 +21°C° 0 mm 3 m/s 749 mmHg 71%
    22:00 +21°C° 0 mm 2 m/s 749 mmHg 71%
    23:00 +21°C° 0 mm 2 m/s 749 mmHg 71%

    Après-demain, 18 Juin, Mardi

    Heure Température Précipitation Vent Pression Humidité
    00:00 +22°C° 0 mm 1 m/s 749 mmHg 71%
    01:00 +22°C° 0 mm 1 m/s 748 mmHg 70%
    02:00 +21°C° 0 mm 1 m/s 748 mmHg 70%
    03:00 +21°C° 0 mm 1 m/s 748 mmHg 70%
    04:00 +22°C° 0 mm 1 m/s 748 mmHg 67%
    05:00 +22°C° 0 mm 1 m/s 748 mmHg 65%
    06:00 +23°C° 0 mm 1 m/s 748 mmHg 62%
    07:00 +24°C° 0 mm 2 m/s 748 mmHg 58%
    08:00 +25°C° 0 mm 2 m/s 748 mmHg 55%
    09:00 +26°C° 0 mm 3 m/s 749 mmHg 51%
    10:00 +27°C° 0 mm 3 m/s 748 mmHg 51%
    11:00 +27°C° 0 mm 4 m/s 748 mmHg 50%
    12:00 +28°C° 0 mm 4 m/s 748 mmHg 50%
    13:00 +28°C° 0 mm 4 m/s 748 mmHg 50%
    14:00 +28°C° 0 mm 5 m/s 747 mmHg 50%
    15:00 +28°C° 0 mm 5 m/s 747 mmHg 49%
    16:00 +28°C° 0 mm 4 m/s 747 mmHg 50%
    17:00 +27°C° 0 mm 4 m/s 747 mmHg 52%
    18:00 +27°C° 0 mm 4 m/s 747 mmHg 53%
    19:00 +26°C° 0 mm 3 m/s 747 mmHg 55%
    20:00 +26°C° 0 mm 3 m/s 747 mmHg 57%
    21:00 +25°C° 0 mm 2 m/s 748 mmHg 58%
    22:00 +25°C° 0 mm 2 m/s 747 mmHg 57%
    23:00 +25°C° 0 mm 2 m/s 747 mmHg 55%

    19 Juin, Mercredi

    Heure Température Précipitation Vent Pression Humidité
    00:00 +25°C° 0 mm 2 m/s 747 mmHg 54%
    01:00 +25°C° 0 mm 2 m/s 747 mmHg 53%
    02:00 +26°C° 0 mm 2 m/s 747 mmHg 52%
    03:00 +26°C° 0 mm 2 m/s 746 mmHg 51%
    04:00 +25°C° 0 mm 3 m/s 747 mmHg 58%
    05:00 +23°C° 0 mm 4 m/s 747 mmHg 65%
    06:00 +22°C° 0 mm 5 m/s 748 mmHg 72%
    07:00 +23°C° 0 mm 4 m/s 748 mmHg 69%
    08:00 +25°C° 0 mm 4 m/s 748 mmHg 65%
    09:00 +26°C° 0 mm 4 m/s 748 mmHg 61%
    10:00 +27°C° 0 mm 4 m/s 748 mmHg 59%
    11:00 +27°C° 0 mm 4 m/s 748 mmHg 57%
    12:00 +28°C° 0 mm 4 m/s 747 mmHg 54%
    13:00 +28°C° 0 mm 4 m/s 747 mmHg 53%
    14:00 +28°C° 0 mm 3 m/s 747 mmHg 52%
    15:00 +28°C° 0 mm 2 m/s 746 mmHg 51%
    16:00 +27°C° 0 mm 2 m/s 746 mmHg 53%
    17:00 +26°C° 0 mm 2 m/s 746 mmHg 55%
    18:00 +26°C° 0 mm 1 m/s 746 mmHg 57%
    19:00 +25°C° 0.1 mm 1 m/s 746 mmHg 59%
    20:00 +25°C° 0.1 mm 1 m/s 747 mmHg 61%
    21:00 +25°C° 0.1 mm 1 m/s 747 mmHg 64%
    22:00 +25°C° 0.2 mm 1 m/s 747 mmHg 65%
    23:00 +25°C° 0.2 mm 1 m/s 746 mmHg 66%

    20 Juin, Jeudi

    Heure Température Précipitation Vent Pression Humidité
    00:00 +24°C° 0.2 mm 1 m/s 746 mmHg 67%
    01:00 +24°C° 0.1 mm 2 m/s 746 mmHg 68%
    02:00 +24°C° 0.1 mm 3 m/s 746 mmHg 68%
    03:00 +22°C° 0.1 mm 3 m/s 746 mmHg 69%
    04:00 +22°C° 0 mm 3 m/s 746 mmHg 69%
    05:00 +23°C° 0 mm 2 m/s 747 mmHg 68%
    06:00 +23°C° 0 mm 2 m/s 747 mmHg 68%
    07:00 +25°C° 0 mm 1 m/s 747 mmHg 61%
    08:00 +26°C° 0 mm 1 m/s 747 mmHg 54%
    09:00 +28°C° 0 mm 1 m/s 747 mmHg 46%
    10:00 +28°C° 0 mm 2 m/s 747 mmHg 44%
    11:00 +29°C° 0 mm 3 m/s 747 mmHg 41%
    12:00 +30°C° 0 mm 3 m/s 747 mmHg 38%
    13:00 +29°C° 0 mm 3 m/s 746 mmHg 40%
    14:00 +29°C° 0 mm 3 m/s 746 mmHg 42%
    15:00 +29°C° 0 mm 3 m/s 745 mmHg 44%
    16:00 +28°C° 0 mm 3 m/s 745 mmHg 47%
    17:00 +27°C° 0 mm 3 m/s 745 mmHg 51%
    18:00 +26°C° 0 mm 3 m/s 745 mmHg 54%
    19:00 +26°C° 0 mm 3 m/s 746 mmHg 56%
    20:00 +25°C° 0 mm 2 m/s 746 mmHg 57%
    21:00 +25°C° 0 mm 1 m/s 746 mmHg 59%
    22:00 +25°C° 0 mm 1 m/s 746 mmHg 59%
    23:00 +25°C° 0 mm 1 m/s 746 mmHg 59%

    21 Juin, Vendredi

    Heure Température Précipitation Vent Pression Humidité
    00:00 +25°C° 0 mm 1 m/s 746 mmHg 59%
    01:00 +24°C° 0 mm 1 m/s 746 mmHg 62%
    02:00 +24°C° 0 mm 2 m/s 745 mmHg 65%
    03:00 +22°C° 0 mm 3 m/s 745 mmHg 67%
    04:00 +23°C° 0.1 mm 2 m/s 746 mmHg 72%
    05:00 +23°C° 0.1 mm 2 m/s 746 mmHg 76%
    06:00 +21°C° 0.1 mm 2 m/s 746 mmHg 80%
    07:00 +23°C° 0 mm 1 m/s 747 mmHg 74%
    08:00 +24°C° 0 mm 1 m/s 747 mmHg 69%
    09:00 +26°C° 0 mm 1 m/s 747 mmHg 63%
    10:00 +26°C° 0 mm 2 m/s 747 mmHg 61%
    11:00 +27°C° 0 mm 2 m/s 746 mmHg 59%
    12:00 +27°C° 0 mm 3 m/s 746 mmHg 58%
    13:00 +27°C° 0 mm 3 m/s 746 mmHg 58%
    14:00 +27°C° 0 mm 3 m/s 745 mmHg 57%
    15:00 +27°C° 0 mm 3 m/s 745 mmHg 57%
    16:00 +26°C° 0.1 mm 3 m/s 745 mmHg 60%
    17:00 +26°C° 0.1 mm 3 m/s 745 mmHg 62%
    18:00 +25°C° 0.1 mm 3 m/s 746 mmHg 65%
    19:00 +24°C° 0.1 mm 3 m/s 746 mmHg 68%
    20:00 +24°C° 0.1 mm 2 m/s 747 mmHg 71%
    21:00 +23°C° 0.1 mm 2 m/s 747 mmHg 74%
    22:00 +23°C° 0.1 mm 2 m/s 747 mmHg 77%
    23:00 +23°C° 0.1 mm 2 m/s 747 mmHg 79%
    Voir plus